START_TIME,STEP,MOV.,EG07,t_acc.,EG08,t_acc.,EG09,t_acc.,EB05,t_acc.,EBP05,t_acc.
1980-11-14 15:00:11.410 ,7,0,0.,1.2,0.,1.2,0.,1.2,,0.0,,0.0
1980-11-14 15:00:12.610 ,7,0,0.,1.2,0.,1.2,0.,1.2,,0.0,,0.0
1980-11-14 15:00:13.810 ,7,0,0.,1.2,0.,1.2,0.,1.2,,0.0,,0.0
1980-11-14 15:00:15.010 ,7,0,0.,1.2,0.,1.2,0.,1.2,,0.0,,0.0
1980-11-14 15:00:16.210 ,7,0,0.,1.2,0.,1.2,0.,1.2,,0.0,,0.0
1980-11-14 15:00:17.410 ,7,0,0.,1.2,0.,1.2,0.,1.2,,0.0,,0.0
1980-11-14 15:00:18.610 ,7,0,0.,1.2,0.,1.2,0.,1.2,,0.0,,0.0
1980-11-14 15:00:19.810 ,7,0,0.,1.2,0.,1.2,0.,1.2,,0.0,,0.0
1980-11-14 15:00:21.010 ,7,0,0.,1.2,0.,1.2,0.,1.2,,0.0,,0.0
1980-11-14 15:00:22.210 ,7,0,0.,1.2,0.,1.2,0.,1.2,,0.0,,0.0
1980-11-14 15:00:23.410 ,7,0,0.,1.2,0.,1.2,0.,1.2,,0.0,,0.0
1980-11-14 15:00:24.610 ,7,0,0.,1.2,0.,1.2,0.,1.2,,0.0,,0.0
1980-11-14 15:00:25.810 ,7,0,0.,1.2,0.,1.2,0.,1.2,,0.0,,0.0
1980-11-14 15:00:27.010 ,7,0,0.,1.2,0.,1.2,0.,1.2,,0.0,,0.0
1980-11-14 15:00:28.210 ,7,0,0.,1.2,0.,1.2,0.,1.2,,0.0,,0.0
1980-11-14 15:00:29.410 ,7,0,0.,1.2,0.,1.2,0.,1.2,,0.0,,0.0
1980-11-14 15:00:30.610 ,7,0,0.,1.2,0.,1.2,0.,1.2,,0.0,,0.0
1980-11-14 15:00:31.810 ,7,0,0.,1.2,0.,1.2,0.,1.2,,0.0,,0.0
1980-11-14 15:00:33.010 ,7,0,0.,1.2,0.,1.2,0.,1.2,,0.0,,0.0
1980-11-14 15:00:34.210 ,7,0,0.,1.2,0.,1.2,0.,1.2,,0.0,,0.0
1980-11-14 15:00:35.410 ,6,0,0.,1.2,0.,1.2,0.,1.2,,0.0,,0.0
1980-11-14 15:00:36.610 ,6,0,0.,1.2,0.,1.2,0.,1.2,,0.0,,0.0
1980-11-14 15:00:37.810 ,6,0,0.,1.2,0.,1.2,0.,1.2,,0.0,,0.0
1980-11-14 15:00:39.010 ,6,0,0.,1.2,0.,1.2,0.,1.2,,0.0,,0.0
1980-11-14 15:00:40.210 ,6,0,0.,1.2,0.,1.2,0.,1.2,,0.0,,0.0
1980-11-14 15:00:41.410 ,6,0,0.,1.2,0.,1.2,0.,1.2,,0.0,,0.0
1980-11-14 15:00:42.610 ,6,0,0.,1.2,0.,1.2,0.,1.2,,0.0,,0.0
1980-11-14 15:00:43.810 ,6,0,0.,1.2,0.,1.2,0.,1.2,,0.0,,0.0
1980-11-14 15:00:45.010 ,6,0,0.,1.2,0.,1.2,0.,1.2,,0.0,,0.0
1980-11-14 15:00:46.210 ,6,0,0.,1.2,0.,1.2,0.,1.2,,0.0,,0.0
1980-11-14 15:00:47.410 ,6,0,0.,1.2,0.,1.2,0.,1.2,,0.0,,0.0
1980-11-14 15:00:48.610 ,6,0,0.,1.2,0.,1.2,0.,1.2,,0.0,,0.0
1980-11-14 15:00:49.810 ,6,0,0.,1.2,0.,1.2,0.,1.2,,0.0,,0.0
1980-11-14 15:00:51.010 ,6,0,0.,1.2,0.,1.2,0.,1.2,,0.0,,0.0
1980-11-14 15:00:52.210 ,6,0,0.,1.2,0.,1.2,0.,1.2,,0.0,,0.0
1980-11-14 15:00:53.410 ,6,0,0.,1.2,0.,1.2,0.,1.2,,0.0,,0.0
1980-11-14 15:00:54.610 ,6,0,0.,1.2,0.,1.2,0.,1.2,,0.0,,0.0
1980-11-14 15:00:55.810 ,6,0,0.,1.2,0.,1.2,0.,1.2,,0.0,,0.0
1980-11-14 15:00:57.010 ,6,0,0.,1.2,0.,1.2,0.,1.2,,0.0,,0.0
1980-11-14 15:00:58.210 ,6,0,0.,1.2,0.,1.2,0.,1.2,,0.0,,0.0
1980-11-14 15:00:59.410 ,6,0,0.,1.2,0.,1.2,0.,1.2,,0.0,,0.0
1980-11-14 15:01:00.610 ,6,0,0.,1.2,0.,1.2,0.,1.2,,0.0,,0.0
1980-11-14 15:01:01.810 ,6,0,0.,1.2,0.,1.2,0.,1.2,,0.0,,0.0
1980-11-14 15:01:03.010 ,6,0,0.,1.2,0.,1.2,0.,1.2,,0.0,,0.0
1980-11-14 15:01:04.210 ,6,0,0.,1.2,0.,1.2,0.,1.2,,0.0,,0.0
1980-11-14 15:01:05.410 ,6,0,0.,1.2,0.,1.2,0.,1.2,,0.0,,0.0
1980-11-14 15:01:06.610 ,6,0,0.,1.2,0.,1.2,0.,1.2,,0.0,,0.0
1980-11-14 15:01:07.810 ,6,0,0.,1.2,0.,1.2,0.,1.2,,0.0,,0.0
1980-11-14 15:01:09.010 ,6,0,0.,1.2,0.,1.2,0.,1.2,,0.0,,0.0
1980-11-14 15:01:10.210 ,6,0,0.,1.2,0.,1.2,0.,1.2,,0.0,,0.0
1980-11-14 15:01:11.410 ,6,0,0.,1.2,0.,1.2,0.,1.2,,0.0,,0.0
1980-11-14 15:01:12.610 ,6,0,0.,1.2,0.,1.2,0.,1.2,,0.0,,0.0
1980-11-14 15:01:13.810 ,6,0,0.,1.2,0.,1.2,0.,1.2,,0.0,,0.0
1980-11-14 15:01:15.010 ,6,0,0.,1.2,0.,1.2,0.,1.2,,0.0,,0.0
1980-11-14 15:01:16.210 ,6,0,0.,1.2,0.,1.2,0.,1.2,,0.0,,0.0
1980-11-14 15:01:17.410 ,6,0,0.,1.2,0.,1.2,0.,1.2,,0.0,,0.0
1980-11-14 15:01:18.610 ,6,0,0.,1.2,0.,1.2,0.,1.2,,0.0,,0.0
1980-11-14 15:01:19.810 ,6,0,0.,1.2,0.,1.2,0.,1.2,,0.0,,0.0
1980-11-14 15:01:21.010 ,6,0,0.,1.2,0.,1.2,0.,1.2,,0.0,,0.0
1980-11-14 15:01:22.210 ,6,0,0.,1.2,0.,1.2,0.,1.2,,0.0,,0.0
1980-11-14 15:01:23.410 ,5,0,0.,1.2,0.,1.2,0.,1.2,,0.0,,0.0
1980-11-14 15:01:24.610 ,5,0,0.,1.2,0.,1.2,0.,1.2,,0.0,,0.0
1980-11-14 15:01:25.810 ,5,0,0.,1.2,0.,1.2,0.,1.2,,0.0,,0.0
1980-11-14 15:01:27.010 ,5,0,0.,1.2,0.,1.2,0.,1.2,,0.0,,0.0
1980-11-14 15:01:28.210 ,5,0,0.,1.2,0.,1.2,0.,1.2,,0.0,,0.0
1980-11-14 15:01:29.410 ,5,0,0.,1.2,0.,1.2,0.,1.2,,0.0,,0.0
1980-11-14 15:01:30.610 ,5,0,0.,1.2,0.,1.2,0.,1.2,,0.0,,0.0
1980-11-14 15:01:31.810 ,5,0,0.,1.2,0.,1.2,0.,1.2,,0.0,,0.0
1980-11-14 15:01:33.010 ,5,0,0.,1.2,0.,1.2,0.,1.2,,0.0,,0.0
1980-11-14 15:01:34.210 ,5,0,0.,1.2,0.,1.2,0.,1.2,,0.0,,0.0
1980-11-14 15:01:35.410 ,5,0,0.,1.2,0.,1.2,0.,1.2,,0.0,,0.0
1980-11-14 15:01:36.610 ,5,0,0.,1.2,0.,1.2,0.,1.2,,0.0,,0.0
1980-11-14 15:01:37.810 ,5,0,0.,1.2,0.,1.2,0.,1.2,,0.0,,0.0
1980-11-14 15:01:39.010 ,5,0,0.,1.2,0.,1.2,0.,1.2,,0.0,,0.0
1980-11-14 15:01:40.210 ,5,0,0.,1.2,0.,1.2,0.,1.2,,0.0,,0.0
1980-11-14 15:01:41.410 ,5,0,0.,1.2,0.,1.2,0.,1.2,,0.0,,0.0
1980-11-14 15:01:42.610 ,5,0,0.,1.2,0.,1.2,0.,1.2,,0.0,,0.0
1980-11-14 15:01:43.810 ,5,0,0.,1.2,0.,1.2,0.,1.2,,0.0,,0.0
1980-11-14 15:01:45.010 ,5,0,0.,1.2,0.,1.2,0.,1.2,,0.0,,0.0
1980-11-14 15:01:46.210 ,5,0,0.,1.2,0.,1.2,0.,1.2,,0.0,,0.0
1980-11-14 15:01:47.410 ,5,0,0.,1.2,0.,1.2,0.,1.2,,0.0,,0.0
1980-11-14 15:01:48.610 ,5,0,0.,1.2,0.,1.2,0.,1.2,,0.0,,0.0
1980-11-14 15:01:49.810 ,5,0,0.,1.2,0.,1.2,0.,1.2,,0.0,,0.0
1980-11-14 15:01:51.010 ,5,0,0.,1.2,0.,1.2,0.,1.2,,0.0,,0.0
1980-11-14 15:01:52.210 ,5,0,0.,1.2,0.,1.2,0.,1.2,,0.0,,0.0
1980-11-14 15:01:53.410 ,5,0,0.,1.2,0.,1.2,0.,1.2,,0.0,,0.0
1980-11-14 15:01:54.610 ,5,0,0.,1.2,0.,1.2,0.,1.2,,0.0,,0.0
1980-11-14 15:01:55.810 ,5,0,0.,1.2,0.,1.2,0.,1.2,,0.0,,0.0
1980-11-14 15:01:57.010 ,5,0,0.,1.2,0.,1.2,0.,1.2,,0.0,,0.0
1980-11-14 15:01:58.210 ,5,0,0.,1.2,0.,1.2,0.,1.2,,0.0,,0.0
1980-11-14 15:01:59.410 ,5,0,0.,1.2,0.,1.2,0.,1.2,,0.0,,0.0
1980-11-14 15:02:00.610 ,5,0,0.,1.2,0.,1.2,0.,1.2,,0.0,,0.0
1980-11-14 15:02:01.810 ,5,0,0.,1.2,0.,1.2,0.,1.2,,0.0,,0.0
1980-11-14 15:02:03.010 ,5,0,0.,1.2,0.,1.2,0.,1.2,,0.0,,0.0
1980-11-14 15:02:04.210 ,5,0,0.,1.2,0.,1.2,0.,1.2,,0.0,,0.0
1980-11-14 15:02:05.410 ,5,0,0.,1.2,0.,1.2,0.,1.2,,0.0,,0.0
1980-11-14 15:02:06.610 ,5,0,0.,1.2,0.,1.2,0.,1.2,,0.0,,0.0
1980-11-14 15:02:07.810 ,5,0,0.,1.2,0.,1.2,0.,1.2,,0.0,,0.0
1980-11-14 15:02:09.010 ,5,0,0.,1.2,0.,1.2,0.,1.2,,0.0,,0.0
1980-11-14 15:02:10.210 ,5,0,0.,1.2,0.,1.2,0.,1.2,,0.0,,0.0
1980-11-14 15:02:11.410 ,4,0,0.,1.2,0.,1.2,0.,1.2,,0.0,,0.0
1980-11-14 15:02:12.610 ,4,0,0.,1.2,0.,1.2,0.,1.2,,0.0,,0.0
1980-11-14 15:02:13.810 ,4,0,0.,1.2,0.,1.2,0.,1.2,,0.0,,0.0
1980-11-14 15:02:15.010 ,4,0,0.,1.2,0.,1.2,0.,1.2,,0.0,,0.0
1980-11-14 15:02:16.210 ,4,0,0.,1.2,0.,1.2,0.,1.2,,0.0,,0.0
1980-11-14 15:02:17.410 ,4,0,0.,1.2,0.,1.2,0.,1.2,,0.0,,0.0
1980-11-14 15:02:18.610 ,4,0,0.,1.2,0.,1.2,0.,1.2,,0.0,,0.0
1980-11-14 15:02:19.810 ,4,0,0.,1.2,0.,1.2,0.,1.2,,0.0,,0.0
1980-11-14 15:02:21.010 ,4,0,0.,1.2,0.,1.2,0.,1.2,,0.0,,0.0
1980-11-14 15:02:22.210 ,4,0,0.,1.2,0.,1.2,0.,1.2,,0.0,,0.0
1980-11-14 15:02:23.410 ,4,0,0.,1.2,0.,1.2,0.,1.2,,0.0,,0.0
1980-11-14 15:02:24.610 ,4,0,0.,1.2,0.,1.2,0.,1.2,,0.0,,0.0
1980-11-14 15:02:25.810 ,4,0,0.,1.2,0.,1.2,0.,1.2,,0.0,,0.0
1980-11-14 15:02:27.010 ,4,0,0.,1.2,0.,1.2,0.,1.2,,0.0,,0.0
1980-11-14 15:02:28.210 ,4,0,0.,1.2,0.,1.2,0.,1.2,,0.0,,0.0
1980-11-14 15:02:29.410 ,4,0,0.,1.2,0.,1.2,0.,1.2,,0.0,,0.0
1980-11-14 15:02:30.610 ,4,0,0.,1.2,0.,1.2,0.,1.2,,0.0,,0.0
1980-11-14 15:02:31.810 ,4,0,0.,1.2,0.,1.2,0.,1.2,,0.0,,0.0
1980-11-14 15:02:33.010 ,4,0,0.,1.2,0.,1.2,0.,1.2,,0.0,,0.0
1980-11-14 15:02:34.210 ,4,0,0.,1.2,0.,1.2,0.,1.2,,0.0,,0.0
1980-11-14 15:02:35.410 ,4,0,0.,1.2,0.,1.2,0.,1.2,,0.0,,0.0
1980-11-14 15:02:36.610 ,4,0,0.,1.2,0.,1.2,0.,1.2,,0.0,,0.0
1980-11-14 15:02:37.810 ,4,0,0.,1.2,0.,1.2,0.,1.2,,0.0,,0.0
1980-11-14 15:02:39.010 ,4,0,0.,1.2,0.,1.2,0.,1.2,,0.0,,0.0
1980-11-14 15:02:40.210 ,4,0,0.,1.2,0.,1.2,0.,1.2,,0.0,,0.0
1980-11-14 15:02:41.410 ,4,0,0.,1.2,0.,1.2,0.,1.2,,0.0,,0.0
1980-11-14 15:02:42.610 ,4,0,0.,1.2,0.,1.2,0.,1.2,,0.0,,0.0
1980-11-14 15:02:43.810 ,4,0,0.,1.2,0.,1.2,0.,1.2,,0.0,,0.0
1980-11-14 15:02:45.010 ,4,0,0.,1.2,0.,1.2,0.,1.2,,0.0,,0.0
1980-11-14 15:02:46.210 ,4,0,0.,1.2,0.,1.2,0.,1.2,,0.0,,0.0
1980-11-14 15:02:47.410 ,4,0,0.,1.2,0.,1.2,0.,1.2,,0.0,,0.0
1980-11-14 15:02:48.610 ,4,0,0.,1.2,0.,1.2,0.,1.2,,0.0,,0.0
1980-11-14 15:02:49.810 ,4,0,0.,1.2,0.,1.2,0.,1.2,,0.0,,0.0
1980-11-14 15:02:51.010 ,4,0,0.,1.2,0.,1.2,0.,1.2,,0.0,,0.0
1980-11-14 15:02:52.210 ,4,0,0.,1.2,0.,1.2,0.,1.2,,0.0,,0.0
1980-11-14 15:02:53.410 ,4,0,0.,1.2,0.,1.2,0.,1.2,,0.0,,0.0
1980-11-14 15:02:54.610 ,4,0,0.,1.2,0.,1.2,0.,1.2,,0.0,,0.0
1980-11-14 15:02:55.810 ,4,0,0.,1.2,0.,1.2,0.,1.2,,0.0,,0.0
1980-11-14 15:02:57.010 ,4,0,0.,1.2,0.,1.2,0.,1.2,,0.0,,0.0
1980-11-14 15:02:58.210 ,4,0,0.,1.2,0.,1.2,0.,1.2,,0.0,,0.0
1980-11-14 15:02:59.410 ,3,0,0.,1.2,0.,1.2,0.,1.2,,0.0,,0.0
1980-11-14 15:03:00.610 ,3,0,0.,1.2,0.,1.2,0.,1.2,,0.0,,0.0
1980-11-14 15:03:01.810 ,3,0,0.,1.2,0.,1.2,0.,1.2,,0.0,,0.0
1980-11-14 15:03:03.010 ,3,0,0.,1.2,0.,1.2,0.,1.2,,0.0,,0.0
1980-11-14 15:03:04.210 ,3,0,0.,1.2,0.,1.2,0.,1.2,,0.0,,0.0
1980-11-14 15:03:05.410 ,3,0,0.,1.2,0.,1.2,0.,1.2,,0.0,,0.0
1980-11-14 15:03:06.610 ,3,0,0.,1.2,0.,1.2,0.,1.2,,0.0,,0.0
1980-11-14 15:03:07.810 ,3,0,0.,1.2,0.,1.2,0.,1.2,,0.0,,0.0
1980-11-14 15:03:09.010 ,3,0,0.,1.2,0.,1.2,0.,1.2,,0.0,,0.0
1980-11-14 15:03:10.210 ,3,0,0.,1.2,0.,1.2,0.,1.2,,0.0,,0.0
1980-11-14 15:03:11.410 ,3,0,0.,1.2,0.,1.2,0.,1.2,,0.0,,0.0
1980-11-14 15:03:12.610 ,3,0,0.,1.2,0.,1.2,0.,1.2,,0.0,,0.0
1980-11-14 15:03:13.810 ,3,0,0.,1.2,0.,1.2,0.,1.2,,0.0,,0.0
1980-11-14 15:03:15.010 ,3,0,0.,1.2,0.,1.2,0.,1.2,,0.0,,0.0
1980-11-14 15:03:16.210 ,3,0,0.,1.2,0.,1.2,0.,1.2,,0.0,,0.0
1980-11-14 15:03:17.410 ,3,0,0.,1.2,0.,1.2,0.,1.2,,0.0,,0.0
1980-11-14 15:03:18.610 ,3,0,0.,1.2,0.,1.2,0.,1.2,,0.0,,0.0
1980-11-14 15:03:19.810 ,3,0,0.,1.2,0.,1.2,0.,1.2,,0.0,,0.0
1980-11-14 15:03:21.010 ,3,0,0.,1.2,0.,1.2,0.,1.2,,0.0,,0.0
1980-11-14 15:03:22.210 ,3,0,0.,1.2,0.,1.2,0.,1.2,,0.0,,0.0
1980-11-14 15:03:23.410 ,3,0,0.,1.2,0.,1.2,0.,1.2,,0.0,,0.0
1980-11-14 15:03:24.610 ,3,0,0.,1.2,0.,1.2,0.,1.2,,0.0,,0.0
1980-11-14 15:03:25.810 ,3,0,0.,1.2,0.,1.2,0.,1.2,,0.0,,0.0
1980-11-14 15:03:27.010 ,3,0,0.,1.2,0.,1.2,0.,1.2,,0.0,,0.0
1980-11-14 15:03:28.210 ,3,0,0.,1.2,0.,1.2,0.,1.2,,0.0,,0.0
1980-11-14 15:03:29.410 ,3,0,0.,1.2,0.,1.2,0.,1.2,,0.0,,0.0
1980-11-14 15:03:30.610 ,3,0,0.,1.2,0.,1.2,0.,1.2,,0.0,,0.0
1980-11-14 15:03:31.810 ,3,0,0.,1.2,0.,1.2,0.,1.2,,0.0,,0.0
1980-11-14 15:03:33.010 ,3,0,0.,1.2,0.,1.2,0.,1.2,,0.0,,0.0
1980-11-14 15:03:34.210 ,3,0,0.,1.2,0.,1.2,0.,1.2,,0.0,,0.0
1980-11-14 15:03:35.410 ,3,0,0.,1.2,0.,1.2,0.,1.2,,0.0,,0.0
1980-11-14 15:03:36.610 ,3,0,0.,1.2,0.,1.2,0.,1.2,,0.0,,0.0
1980-11-14 15:03:37.810 ,3,0,0.,1.2,0.,1.2,0.,1.2,,0.0,,0.0
1980-11-14 15:03:39.010 ,3,0,0.,1.2,0.,1.2,0.,1.2,,0.0,,0.0
1980-11-14 15:03:40.210 ,3,0,0.,1.2,0.,1.2,0.,1.2,,0.0,,0.0
1980-11-14 15:03:41.410 ,3,0,0.,1.2,0.,1.2,0.,1.2,,0.0,,0.0
1980-11-14 15:03:42.610 ,3,0,0.,1.2,0.,1.2,0.,1.2,,0.0,,0.0
1980-11-14 15:03:43.810 ,3,0,0.,1.2,0.,1.2,0.,1.2,,0.0,,0.0
1980-11-14 15:03:45.010 ,3,0,0.,1.2,0.,1.2,0.,1.2,,0.0,,0.0
1980-11-14 15:03:46.210 ,3,0,0.,1.2,0.,1.2,0.,1.2,,0.0,,0.0
1980-11-14 15:03:47.410 ,2,0,0.,1.2,0.,1.2,0.,1.2,,0.0,,0.0
1980-11-14 15:03:48.610 ,2,0,0.,1.2,0.,1.2,0.,1.2,,0.0,,0.0
1980-11-14 15:03:49.810 ,2,0,0.,1.2,0.,1.2,0.,1.2,,0.0,,0.0
1980-11-14 15:03:51.010 ,2,0,0.,1.2,0.,1.2,0.,1.2,,0.0,,0.0
1980-11-14 15:03:52.210 ,2,0,0.,1.2,0.,1.2,0.,1.2,,0.0,,0.0
1980-11-14 15:03:53.410 ,2,0,0.,1.2,0.,1.2,0.,1.2,,0.0,,0.0
1980-11-14 15:03:54.610 ,2,0,0.,1.2,0.,1.2,0.,1.2,,0.0,,0.0
1980-11-14 15:03:55.810 ,2,0,0.,1.2,0.,1.2,0.,1.2,,0.0,,0.0
1980-11-14 15:03:57.010 ,2,0,0.,1.2,0.,1.2,0.,1.2,,0.0,,0.0
1980-11-14 15:03:58.210 ,2,0,0.,1.2,0.,1.2,0.,1.2,,0.0,,0.0
1980-11-14 15:03:59.410 ,2,0,0.,1.2,0.,1.2,0.,1.2,,0.0,,0.0
1980-11-14 15:04:00.610 ,2,0,0.,1.2,0.,1.2,0.,1.2,,0.0,,0.0
1980-11-14 15:04:01.810 ,2,0,0.,1.2,0.,1.2,0.,1.2,,0.0,,0.0
1980-11-14 15:04:03.010 ,2,0,0.,1.2,0.,1.2,0.,1.2,,0.0,,0.0
1980-11-14 15:04:04.210 ,2,0,0.,1.2,0.,1.2,0.,1.2,,0.0,,0.0
1980-11-14 15:04:05.410 ,2,0,0.,1.2,0.,1.2,0.,1.2,,0.0,,0.0
1980-11-14 15:04:06.610 ,2,0,0.,1.2,0.,1.2,0.,1.2,,0.0,,0.0
1980-11-14 15:04:07.810 ,2,0,0.,1.2,0.,1.2,0.,1.2,,0.0,,0.0
1980-11-14 15:04:09.010 ,2,0,0.,1.2,0.,1.2,0.,1.2,,0.0,,0.0
1980-11-14 15:04:10.210 ,2,0,0.,1.2,0.,1.2,0.,1.2,,0.0,,0.0
1980-11-14 15:04:11.410 ,2,0,0.,1.2,0.,1.2,0.,1.2,,0.0,,0.0
1980-11-14 15:04:12.610 ,2,0,0.,1.2,0.,1.2,0.,1.2,,0.0,,0.0
1980-11-14 15:04:13.810 ,2,0,0.,1.2,0.,1.2,0.,1.2,,0.0,,0.0
1980-11-14 15:04:15.010 ,2,0,0.,1.2,0.,1.2,0.,1.2,,0.0,,0.0
1980-11-14 15:04:16.210 ,2,0,0.,1.2,0.,1.2,0.,1.2,,0.0,,0.0
1980-11-14 15:04:17.410 ,2,0,0.,1.2,0.,1.2,0.,1.2,,0.0,,0.0
1980-11-14 15:04:18.610 ,2,0,0.,1.2,0.,1.2,0.,1.2,,0.0,,0.0
1980-11-14 15:04:19.810 ,2,0,0.,1.2,0.,1.2,0.,1.2,,0.0,,0.0
1980-11-14 15:04:21.010 ,2,0,0.,1.2,0.,1.2,0.,1.2,,0.0,,0.0
1980-11-14 15:04:22.210 ,2,0,0.,1.2,0.,1.2,0.,1.2,,0.0,,0.0
1980-11-14 15:04:23.410 ,2,0,0.,1.2,0.,1.2,0.,1.2,,0.0,,0.0
1980-11-14 15:04:24.610 ,2,0,0.,1.2,0.,1.2,0.,1.2,,0.0,,0.0
1980-11-14 15:04:25.810 ,2,0,0.,1.2,0.,1.2,0.,1.2,,0.0,,0.0
1980-11-14 15:04:27.010 ,2,0,0.,1.2,0.,1.2,0.,1.2,,0.0,,0.0
1980-11-14 15:04:28.210 ,2,0,0.,1.2,0.,1.2,0.,1.2,,0.0,,0.0
1980-11-14 15:04:29.410 ,2,0,0.,1.2,0.,1.2,0.,1.2,,0.0,,0.0
1980-11-14 15:04:30.610 ,2,0,0.,1.2,0.,1.2,0.,1.2,,0.0,,0.0
1980-11-14 15:04:31.810 ,2,0,0.,1.2,0.,1.2,0.,1.2,,0.0,,0.0
1980-11-14 15:04:33.010 ,2,0,0.,1.2,0.,1.2,0.,1.2,,0.0,,0.0
1980-11-14 15:04:34.210 ,2,0,0.,1.2,0.,1.2,0.,1.2,,0.0,,0.0
1980-11-14 15:04:35.410 ,1,0,0.,1.2,0.,1.2,0.,1.2,,0.0,,0.0
1980-11-14 15:04:36.610 ,1,0,0.,1.2,0.,1.2,0.,1.2,,0.0,,0.0
1980-11-14 15:04:37.810 ,1,0,0.,1.2,0.,1.2,0.,1.2,,0.0,,0.0
1980-11-14 15:04:39.010 ,1,0,0.,1.2,0.,1.2,0.,1.2,,0.0,,0.0
1980-11-14 15:04:40.210 ,1,0,0.,1.2,0.,1.2,0.,1.2,,0.0,,0.0
1980-11-14 15:04:41.410 ,1,0,0.,1.2,0.,1.2,0.,1.2,,0.0,,0.0
1980-11-14 15:04:42.610 ,1,0,0.,1.2,0.,1.2,0.,1.2,,0.0,,0.0
1980-11-14 15:04:43.810 ,1,0,0.,1.2,0.,1.2,0.,1.2,,0.0,,0.0
1980-11-14 15:04:45.010 ,1,0,0.,1.2,0.,1.2,0.,1.2,,0.0,,0.0
1980-11-14 15:04:46.210 ,1,0,0.,1.2,0.,1.2,0.,1.2,,0.0,,0.0
1980-11-14 15:04:47.410 ,1,0,0.,1.2,0.,1.2,0.,1.2,,0.0,,0.0
1980-11-14 15:04:48.610 ,1,0,0.,1.2,0.,1.2,0.,1.2,,0.0,,0.0
1980-11-14 15:04:49.810 ,1,0,0.,1.2,0.,1.2,0.,1.2,,0.0,,0.0
1980-11-14 15:04:51.010 ,1,0,0.,1.2,0.,1.2,0.,1.2,,0.0,,0.0
1980-11-14 15:04:52.210 ,1,0,0.,1.2,0.,1.2,0.,1.2,,0.0,,0.0
1980-11-14 15:04:53.410 ,1,0,0.,1.2,0.,1.2,0.,1.2,,0.0,,0.0
1980-11-14 15:04:54.610 ,1,0,0.,1.2,0.,1.2,0.,1.2,,0.0,,0.0
1980-11-14 15:04:55.810 ,1,0,0.,1.2,0.,1.2,0.,1.2,,0.0,,0.0
1980-11-14 15:04:57.010 ,1,0,0.,1.2,0.,1.2,0.,1.2,,0.0,,0.0
1980-11-14 15:04:58.210 ,1,0,0.,1.2,0.,1.2,0.,1.2,,0.0,,0.0
1980-11-14 15:04:59.410 ,1,0,0.,1.2,0.,1.2,0.,1.2,,0.0,,0.0
1980-11-14 15:05:00.610 ,1,0,0.,1.2,0.,1.2,0.,1.2,,0.0,,0.0
1980-11-14 15:05:01.810 ,1,0,0.,1.2,0.,1.2,0.,1.2,,0.0,,0.0
1980-11-14 15:05:03.010 ,1,0,0.,1.2,0.,1.2,0.,1.2,,0.0,,0.0
1980-11-14 15:05:04.210 ,1,0,0.,1.2,0.,1.2,0.,1.2,,0.0,,0.0
1980-11-14 15:05:05.410 ,1,0,0.,1.2,0.,1.2,0.,1.2,,0.0,,0.0
1980-11-14 15:05:06.610 ,1,0,0.,1.2,0.,1.2,0.,1.2,,0.0,,0.0
1980-11-14 15:05:07.810 ,1,0,0.,1.2,0.,1.2,0.,1.2,,0.0,,0.0
1980-11-14 15:05:09.010 ,1,0,0.,1.2,0.,1.2,0.,1.2,,0.0,,0.0
1980-11-14 15:05:10.210 ,1,0,0.,1.2,0.,1.2,0.,1.2,,0.0,,0.0
1980-11-14 15:05:11.410 ,1,0,0.,1.2,0.,1.2,0.,1.2,,0.0,,0.0
1980-11-14 15:05:12.610 ,1,0,0.,1.2,0.,1.2,0.,1.2,,0.0,,0.0
1980-11-14 15:05:13.810 ,1,0,0.,1.2,0.,1.2,0.,1.2,,0.0,,0.0
1980-11-14 15:05:15.010 ,1,0,0.,1.2,0.,1.2,0.,1.2,,0.0,,0.0
1980-11-14 15:05:16.210 ,1,0,0.,1.2,0.,1.2,0.,1.2,,0.0,,0.0
1980-11-14 15:05:17.410 ,1,0,0.,1.2,0.,1.2,0.,1.2,,0.0,,0.0
1980-11-14 15:05:18.610 ,1,0,0.,1.2,0.,1.2,0.,1.2,,0.0,,0.0
1980-11-14 15:05:19.810 ,1,0,0.,1.2,0.,1.2,0.,1.2,,0.0,,0.0
1980-11-14 15:05:21.010 ,1,0,0.,1.2,0.,1.2,0.,1.2,,0.0,,0.0
1980-11-14 15:05:22.210 ,1,0,0.,1.2,0.,1.2,0.,1.2,,0.0,,0.0
1980-11-14 15:05:23.410 ,0,0,0.,1.2,0.,1.2,0.,1.2,,0.0,,0.0
1980-11-14 15:05:24.610 ,0,0,0.,1.2,0.,1.2,0.,1.2,,0.0,,0.0
1980-11-14 15:05:25.810 ,0,0,0.,1.2,0.,1.2,0.,1.2,,0.0,,0.0
1980-11-14 15:05:27.010 ,0,0,0.,1.2,0.,1.2,0.,1.2,,0.0,,0.0
1980-11-14 15:05:28.210 ,0,0,0.,1.2,0.,1.2,0.,1.2,,0.0,,0.0
1980-11-14 15:05:29.410 ,0,0,0.,1.2,0.,1.2,0.,1.2,,0.0,,0.0
1980-11-14 15:05:30.610 ,0,0,0.,1.2,0.,1.2,0.,1.2,,0.0,,0.0
1980-11-14 15:05:31.810 ,0,0,0.,1.2,0.,1.2,0.,1.2,,0.0,,0.0
1980-11-14 15:05:33.010 ,0,0,0.,1.2,0.,1.2,0.,1.2,,0.0,,0.0
1980-11-14 15:05:34.210 ,0,0,0.,1.2,0.,1.2,0.,1.2,,0.0,,0.0
1980-11-14 15:05:35.410 ,0,0,0.,1.2,0.,1.2,0.,1.2,,0.0,,0.0
1980-11-14 15:05:36.610 ,0,0,0.,1.2,0.,1.2,0.,1.2,,0.0,,0.0
1980-11-14 15:05:37.810 ,0,0,0.,1.2,0.,1.2,0.,1.2,,0.0,,0.0
1980-11-14 15:05:39.010 ,0,0,0.,1.2,0.,1.2,0.,1.2,,0.0,,0.0
1980-11-14 15:05:40.210 ,0,0,0.,1.2,0.,1.2,0.,1.2,,0.0,,0.0
1980-11-14 15:05:41.410 ,0,0,0.,1.2,0.,1.2,0.,1.2,,0.0,,0.0
1980-11-14 15:05:42.610 ,0,0,0.,1.2,0.,1.2,0.,1.2,,0.0,,0.0
1980-11-14 15:05:43.810 ,0,0,0.,1.2,0.,1.2,0.,1.2,,0.0,,0.0
1980-11-14 15:05:45.010 ,0,0,0.,1.2,0.,1.2,0.,1.2,,0.0,,0.0
1980-11-14 15:05:46.210 ,0,0,0.,1.2,0.,1.2,0.,1.2,,0.0,,0.0
1980-11-14 15:05:47.410 ,0,0,0.,1.2,0.,1.2,0.,1.2,,0.0,,0.0
1980-11-14 15:05:48.610 ,0,0,0.,1.2,0.,1.2,0.,1.2,,0.0,,0.0
1980-11-14 15:05:49.810 ,0,0,0.,1.2,0.,1.2,0.,1.2,,0.0,,0.0
1980-11-14 15:05:51.010 ,0,0,0.,1.2,0.,1.2,0.,1.2,,0.0,,0.0
1980-11-14 15:05:52.210 ,0,0,0.,1.2,0.,1.2,0.,1.2,,0.0,,0.0
1980-11-14 15:05:53.410 ,0,0,0.,1.2,0.,1.2,0.,1.2,,0.0,,0.0
1980-11-14 15:05:54.610 ,0,0,0.,1.2,0.,1.2,0.,1.2,,0.0,,0.0
1980-11-14 15:05:55.810 ,0,0,0.,1.2,0.,1.2,0.,1.2,,0.0,,0.0
1980-11-14 15:05:57.010 ,0,0,0.,1.2,0.,1.2,0.,1.2,,0.0,,0.0
1980-11-14 15:05:58.210 ,0,0,0.,1.2,0.,1.2,0.,1.2,,0.0,,0.0
1980-11-14 15:05:59.410 ,0,0,0.,1.2,0.,1.2,0.,1.2,,0.0,,0.0
1980-11-14 15:06:00.610 ,0,0,0.,1.2,0.,1.2,0.,1.2,,0.0,,0.0
1980-11-14 15:06:01.810 ,0,0,0.,1.2,0.,1.2,0.,1.2,,0.0,,0.0
1980-11-14 15:06:03.010 ,0,0,0.,1.2,0.,1.2,0.,1.2,,0.0,,0.0
1980-11-14 15:06:04.210 ,0,0,0.,1.2,0.,1.2,0.,1.2,,0.0,,0.0
1980-11-14 15:06:05.410 ,0,0,0.,1.2,0.,1.2,0.,1.2,,0.0,,0.0
1980-11-14 15:06:06.610 ,0,0,0.,1.2,0.,1.2,0.,1.2,,0.0,,0.0
1980-11-14 15:06:07.810 ,0,0,0.,1.2,0.,1.2,0.,1.2,,0.0,,0.0
1980-11-14 15:06:09.010 ,0,0,0.,1.2,0.,1.2,0.,1.2,,0.0,,0.0
1980-11-14 15:06:10.210 ,0,0,0.,1.2,0.,1.2,0.,1.2,,0.0,,0.0
1980-11-14 15:06:11.410 ,0,0,0.,1.2,0.,1.2,0.,1.2,,0.0,,0.0
1980-11-14 15:06:12.610 ,0,0,0.,1.2,0.,1.2,0.,1.2,,0.0,,0.0
1980-11-14 15:06:13.810 ,0,0,0.,1.2,0.,1.2,0.,1.2,,0.0,,0.0
1980-11-14 15:06:15.010 ,0,0,0.,1.2,0.,1.2,0.,1.2,,0.0,,0.0
1980-11-14 15:06:16.210 ,0,0,0.,1.2,0.,1.2,0.,1.2,,0.0,,0.0
1980-11-14 15:06:17.410 ,0,0,0.,1.2,0.,1.2,0.,1.2,,0.0,,0.0
1980-11-14 15:06:18.610 ,0,0,0.,1.2,0.,1.2,0.,1.2,,0.0,,0.0
1980-11-14 15:06:19.810 ,0,0,0.,1.2,0.,1.2,0.,1.2,,0.0,,0.0
1980-11-14 15:06:21.010 ,0,0,0.,1.2,0.,1.2,0.,1.2,,0.0,,0.0
1980-11-14 15:06:22.210 ,0,0,0.,1.2,0.,1.2,0.,1.2,,0.0,,0.0
1980-11-14 15:06:23.410 ,0,0,0.,1.2,0.,1.2,0.,1.2,,0.0,,0.0
1980-11-14 15:06:24.610 ,0,0,0.,1.2,0.,1.2,0.,1.2,,0.0,,0.0
1980-11-14 15:06:25.810 ,0,0,0.,1.2,0.,1.2,0.,1.2,,0.0,,0.0
1980-11-14 15:06:27.010 ,0,0,0.,1.2,0.,1.2,0.,1.2,,0.0,,0.0
1980-11-14 15:06:28.210 ,0,0,0.,1.2,0.,1.2,0.,1.2,,0.0,,0.0
1980-11-14 15:06:29.410 ,0,0,0.,1.2,0.,1.2,0.,1.2,,0.0,,0.0
1980-11-14 15:06:30.610 ,0,0,0.,1.2,0.,1.2,0.,1.2,,0.0,,0.0
1980-11-14 15:06:31.810 ,0,0,0.,1.2,0.,1.2,0.,1.2,,0.0,,0.0
1980-11-14 15:06:33.010 ,0,0,0.,1.2,0.,1.2,0.,1.2,,0.0,,0.0
1980-11-14 15:06:34.210 ,0,0,0.,1.2,0.,1.2,0.,1.2,,0.0,,0.0
1980-11-14 15:06:35.410 ,0,0,0.,1.2,0.,1.2,0.,1.2,,0.0,,0.0
1980-11-14 15:06:36.610 ,0,0,0.,1.2,0.,1.2,0.,1.2,,0.0,,0.0
1980-11-14 15:06:37.810 ,0,0,0.,1.2,0.,1.2,0.,1.2,,0.0,,0.0
1980-11-14 15:06:39.010 ,0,0,0.,1.2,0.,1.2,0.,1.2,,0.0,,0.0
1980-11-14 15:06:40.210 ,0,0,0.,1.2,0.,1.2,0.,1.2,,0.0,,0.0
1980-11-14 15:06:41.410 ,0,0,0.,1.2,0.,1.2,0.,1.2,,0.0,,0.0
1980-11-14 15:06:42.610 ,0,0,0.,1.2,0.,1.2,0.,1.2,,0.0,,0.0
1980-11-14 15:06:43.810 ,0,0,0.,1.2,0.,1.2,0.,1.2,,0.0,,0.0
1980-11-14 15:06:45.010 ,0,0,0.,1.2,0.,1.2,0.,1.2,,0.0,,0.0
1980-11-14 15:06:46.210 ,0,0,0.,1.2,0.,1.2,0.,1.2,,0.0,,0.0
1980-11-14 15:06:47.410 ,0,0,0.,1.2,0.,1.2,0.,1.2,,0.0,,0.0
1980-11-14 15:06:48.610 ,0,0,0.,1.2,0.,1.2,0.,1.2,,0.0,,0.0
1980-11-14 15:06:49.810 ,0,0,0.,1.2,0.,1.2,0.,1.2,,0.0,,0.0
1980-11-14 15:06:51.010 ,0,0,0.,1.2,0.,1.2,0.,1.2,,0.0,,0.0
1980-11-14 15:06:52.210 ,0,0,0.,1.2,0.,1.2,0.,1.2,,0.0,,0.0
1980-11-14 15:06:53.410 ,0,0,0.,1.2,0.,1.2,0.,1.2,,0.0,,0.0
1980-11-14 15:06:54.610 ,0,0,0.,1.2,0.,1.2,0.,1.2,,0.0,,0.0
1980-11-14 15:06:55.810 ,0,0,0.,1.2,0.,1.2,0.,1.2,,0.0,,0.0
1980-11-14 15:06:57.010 ,0,0,0.,1.2,0.,1.2,0.,1.2,,0.0,,0.0
1980-11-14 15:06:58.210 ,0,0,0.,1.2,0.,1.2,0.,1.2,,0.0,,0.0
1980-11-14 15:06:59.410 ,1,0,0.,1.2,0.,1.2,0.,1.2,,0.0,,0.0
1980-11-14 15:07:00.610 ,1,0,0.,1.2,0.,1.2,0.,1.2,,0.0,,0.0
1980-11-14 15:07:01.810 ,1,0,0.,1.2,0.,1.2,0.,1.2,,0.0,,0.0
1980-11-14 15:07:03.010 ,1,0,0.,1.2,0.,1.2,0.,1.2,,0.0,,0.0
1980-11-14 15:07:04.210 ,1,0,0.,1.2,0.,1.2,0.,1.2,,0.0,,0.0
1980-11-14 15:07:05.410 ,1,0,0.,1.2,0.,1.2,0.,1.2,,0.0,,0.0
1980-11-14 15:07:06.610 ,1,0,0.,1.2,0.,1.2,0.,1.2,,0.0,,0.0
1980-11-14 15:07:07.810 ,1,0,0.,1.2,0.,1.2,0.,1.2,,0.0,,0.0
1980-11-14 15:07:09.010 ,1,0,0.,1.2,0.,1.2,0.,1.2,,0.0,,0.0
1980-11-14 15:07:10.210 ,1,0,0.,1.2,0.,1.2,0.,1.2,,0.0,,0.0
1980-11-14 15:07:11.410 ,1,0,0.,1.2,0.,1.2,0.,1.2,,0.0,,0.0
1980-11-14 15:07:12.610 ,1,0,0.,1.2,0.,1.2,0.,1.2,,0.0,,0.0
1980-11-14 15:07:13.810 ,1,0,0.,1.2,0.,1.2,0.,1.2,,0.0,,0.0
1980-11-14 15:07:15.010 ,1,0,0.,1.2,0.,1.2,0.,1.2,,0.0,,0.0
1980-11-14 15:07:16.210 ,1,0,0.,1.2,0.,1.2,0.,1.2,,0.0,,0.0
1980-11-14 15:07:17.410 ,1,0,0.,1.2,0.,1.2,0.,1.2,,0.0,,0.0
1980-11-14 15:07:18.610 ,1,0,0.,1.2,0.,1.2,0.,1.2,,0.0,,0.0
1980-11-14 15:07:19.810 ,1,0,0.,1.2,0.,1.2,0.,1.2,,0.0,,0.0
1980-11-14 15:07:21.010 ,1,0,0.,1.2,0.,1.2,0.,1.2,,0.0,,0.0
1980-11-14 15:07:22.210 ,1,0,0.,1.2,0.,1.2,0.,1.2,,0.0,,0.0
1980-11-14 15:07:23.410 ,1,0,0.,1.2,0.,1.2,0.,1.2,,0.0,,0.0
1980-11-14 15:07:24.610 ,1,0,0.,1.2,0.,1.2,0.,1.2,,0.0,,0.0
1980-11-14 15:07:25.810 ,1,0,0.,1.2,0.,1.2,0.,1.2,,0.0,,0.0
1980-11-14 15:07:27.010 ,1,0,0.,1.2,0.,1.2,0.,1.2,,0.0,,0.0
1980-11-14 15:07:28.210 ,1,0,0.,1.2,0.,1.2,0.,1.2,,0.0,,0.0
1980-11-14 15:07:29.410 ,1,0,0.,1.2,0.,1.2,0.,1.2,,0.0,,0.0
1980-11-14 15:07:30.610 ,1,0,0.,1.2,0.,1.2,0.,1.2,,0.0,,0.0
1980-11-14 15:07:31.810 ,1,0,0.,1.2,0.,1.2,0.,1.2,,0.0,,0.0
1980-11-14 15:07:33.010 ,1,0,0.,1.2,0.,1.2,0.,1.2,,0.0,,0.0
1980-11-14 15:07:34.210 ,1,0,0.,1.2,0.,1.2,0.,1.2,,0.0,,0.0
1980-11-14 15:07:35.410 ,1,0,0.,1.2,0.,1.2,0.,1.2,,0.0,,0.0
1980-11-14 15:07:36.610 ,1,0,0.,1.2,0.,1.2,0.,1.2,,0.0,,0.0
1980-11-14 15:07:37.810 ,1,0,0.,1.2,0.,1.2,0.,1.2,,0.0,,0.0
1980-11-14 15:07:39.010 ,1,0,0.,1.2,0.,1.2,0.,1.2,,0.0,,0.0
1980-11-14 15:07:40.210 ,1,0,0.,1.2,0.,1.2,0.,1.2,,0.0,,0.0
1980-11-14 15:07:41.410 ,1,0,0.,1.2,0.,1.2,0.,1.2,,0.0,,0.0
1980-11-14 15:07:42.610 ,1,0,0.,1.2,0.,1.2,0.,1.2,,0.0,,0.0
1980-11-14 15:07:43.810 ,1,0,0.,1.2,0.,1.2,0.,1.2,,0.0,,0.0
1980-11-14 15:07:45.010 ,1,0,0.,1.2,0.,1.2,0.,1.2,,0.0,,0.0
1980-11-14 15:07:46.210 ,1,0,0.,1.2,0.,1.2,0.,1.2,,0.0,,0.0
1980-11-14 15:07:47.410 ,2,0,0.,1.2,0.,1.2,0.,1.2,,0.0,,0.0
1980-11-14 15:07:48.610 ,2,0,0.,1.2,0.,1.2,0.,1.2,,0.0,,0.0
1980-11-14 15:07:49.810 ,2,0,0.,1.2,0.,1.2,0.,1.2,,0.0,,0.0
1980-11-14 15:07:51.010 ,2,0,0.,1.2,0.,1.2,0.,1.2,,0.0,,0.0
1980-11-14 15:07:52.210 ,2,0,0.,1.2,0.,1.2,0.,1.2,,0.0,,0.0
1980-11-14 15:07:53.410 ,2,0,0.,1.2,0.,1.2,0.,1.2,,0.0,,0.0
1980-11-14 15:07:54.610 ,2,0,0.,1.2,0.,1.2,0.,1.2,,0.0,,0.0
1980-11-14 15:07:55.810 ,2,0,0.,1.2,0.,1.2,0.,1.2,,0.0,,0.0
1980-11-14 15:07:57.010 ,2,0,0.,1.2,0.,1.2,0.,1.2,,0.0,,0.0
1980-11-14 15:07:58.210 ,2,0,0.,1.2,0.,1.2,0.,1.2,,0.0,,0.0
1980-11-14 15:07:59.410 ,2,0,0.,1.2,0.,1.2,0.,1.2,,0.0,,0.0
1980-11-14 15:08:00.610 ,2,0,0.,1.2,0.,1.2,0.,1.2,,0.0,,0.0